This demonstration page uses our WeatherBlox Daily Observations layout. Learn more.

Left ArrowRight Arrow

Hourly Observations for August 7, 2019

Temp ( °F °C ) Dew Point ( °F °C ) Humidity (%) Winds ( mph kmh ) Pressure ( in mb ) Visibility ( mi km ) Precip ( " mm )
12:56 am 00:56 Mostly Cloudy 75 24 64 18 69 69 VRB 7 11 29.92 1013 10 16 0.00 0.00
1:56 am 01:56 Mostly Cloudy 75 24 63 17 65 65 VRB 7 11 29.91 1013 10 16 0.00 0.00
2:11 am 02:11 Clear N/A N/A N/A Calm N/A 10 16 0.00 0.00
2:56 am 02:56 Cloudy with Light Showers 73 23 64 18 74 74 VRB 7 11 29.88 1012 10 16 0.00 0.00
3:52 am 03:52 Clear N/A N/A N/A SW 14 22 N/A 10 16 0.00 0.00
3:56 am 03:56 Windy with Rain Showers Likely 72 22 64 18 78 78 SSW 21 33 29.78 1008 10 16 0.00 0.00
4:56 am 04:56 Cloudy 73 23 64 18 74 74 VRB 7 11 29.81 1010 10 16 0.00 0.00
5:56 am 05:56 Cloudy 72 22 64 18 78 78 VRB 7 11 29.83 1010 10 16 0.00 0.00
6:56 am 06:56 Mostly Cloudy 72 22 64 18 78 78 Calm 29.84 1011 10 16 0.00 0.00
7:56 am 07:56 Mostly Cloudy 72 22 64 18 78 78 SSE 6 9 29.87 1011 10 16 0.00 0.00
8:56 am 08:56 Mostly Cloudy 75 24 64 18 69 69 S 5 7 29.88 1012 10 16 0.00 0.00
9:56 am 09:56 Mostly Cloudy 75 24 66 19 74 74 SW 5 7 29.89 1012 10 16 0.00 0.00
10:56 am 10:56 Partly Cloudy 82 28 64 18 55 55 W 12 19 29.85 1011 10 16 0.00 0.00
12:56 pm 12:56 Partly Cloudy 90 32 64 18 43 43 WNW 12 19 29.83 1010 10 16 0.00 0.00
1:56 pm 13:56 Partly Cloudy 90 32 66 19 46 46 WNW 8 13 29.84 1011 10 16 0.00 0.00
2:56 pm 14:56 Mostly Sunny 91 33 66 19 44 44 W 6 9 29.83 1010 10 16 0.00 0.00
3:56 pm 15:56 Partly Cloudy 90 32 66 19 46 46 NNW 3 6 29.83 1010 10 16 0.00 0.00
4:56 pm 16:56 Partly Cloudy 90 32 64 18 43 43 WNW 3 6 29.83 1010 10 16 0.00 0.00
5:56 pm 17:56 Mostly Sunny 90 32 66 19 46 46 NNW 6 9 29.82 1010 10 16 0.00 0.00
6:56 pm 18:56 Partly Cloudy 88 31 70 21 55 55 WSW 5 7 29.82 1010 10 16 0.00 0.00
7:56 pm 19:56 Mostly Cloudy 86 30 70 21 59 59 SSW 5 7 29.83 1010 10 16 0.00 0.00
8:56 pm 20:56 Mostly Cloudy 84 29 70 21 62 62 WSW 6 9 29.84 1011 10 16 0.00 0.00
9:56 pm 21:56 Partly Cloudy 81 27 70 21 70 70 WNW 3 6 29.87 1012 10 16 0.00 0.00
10:56 pm 22:56 Mostly Clear 81 27 70 21 70 70 W 5 7 29.87 1012 10 16 0.00 0.00
11:56 pm 23:56 Mostly Clear 79 26 70 21 74 74 VRB 7 11 29.87 1012 10 16 0.00 0.00

Powered by AerisWeather